<?xml version="1.0" encoding="UTF-8" standalone="no" ?>
<gpx xmlns="http://www.topografix.com/GPX/1/1" xmlns:xsi="http://www.w3.org/2001/XMLSchema-instance" xsi:schemaLocation="http://www.topografix.com/GPX/1/1 http://www.topografix.com/GPX/1/1/gpx.xsd" version="1.1" creator="VisuGPX - https://www.visugpx.com">
  <metadata>
    <name> Lancieux</name>
    <desc><![CDATA[Promenade tres facile]]></desc>
  </metadata>
  <trk>
    <name><![CDATA[21 juin 2014]]></name>
    <cmt><![CDATA[17:26:05]]></cmt>
    <desc><![CDATA[comment ...]]></desc>
    <trkseg>
      <trkpt lat="48.52485" lon="-2.08229">
        <ele>65</ele>
        <time>2014-06-21T17:26:07Z</time>
      </trkpt>
      <trkpt lat="48.52484" lon="-2.08229">
        <ele>64</ele>
        <time>2014-06-21T17:26:08Z</time>
      </trkpt>
      <trkpt lat="48.52482" lon="-2.08231">
        <ele>58</ele>
        <time>2014-06-21T17:26:15Z</time>
      </trkpt>
      <trkpt lat="48.5248" lon="-2.08235">
        <ele>57</ele>
        <time>2014-06-21T17:26:19Z</time>
      </trkpt>
      <trkpt lat="48.52479" lon="-2.08237">
        <ele>56</ele>
        <time>2014-06-21T17:26:22Z</time>
      </trkpt>
      <trkpt lat="48.52479" lon="-2.08241">
        <ele>59</ele>
        <time>2014-06-21T17:26:32Z</time>
      </trkpt>
      <trkpt lat="48.52477" lon="-2.08245">
        <ele>60</ele>
        <time>2014-06-21T17:26:34Z</time>
      </trkpt>
      <trkpt lat="48.52453" lon="-2.08253">
        <ele>59</ele>
        <time>2014-06-21T17:26:44Z</time>
      </trkpt>
      <trkpt lat="48.52418" lon="-2.08247">
        <ele>62</ele>
        <time>2014-06-21T17:26:57Z</time>
      </trkpt>
      <trkpt lat="48.52406" lon="-2.08241">
        <ele>64</ele>
        <time>2014-06-21T17:27:02Z</time>
      </trkpt>
      <trkpt lat="48.52406" lon="-2.08222">
        <ele>61</ele>
        <time>2014-06-21T17:27:08Z</time>
      </trkpt>
      <trkpt lat="48.52418" lon="-2.08177">
        <ele>56</ele>
        <time>2014-06-21T17:27:18Z</time>
      </trkpt>
      <trkpt lat="48.52431" lon="-2.08132">
        <ele>53</ele>
        <time>2014-06-21T17:27:29Z</time>
      </trkpt>
      <trkpt lat="48.52469" lon="-2.0814">
        <ele>51</ele>
        <time>2014-06-21T17:27:38Z</time>
      </trkpt>
      <trkpt lat="48.52501" lon="-2.08139">
        <ele>52</ele>
        <time>2014-06-21T17:27:45Z</time>
      </trkpt>
      <trkpt lat="48.52557" lon="-2.08105">
        <ele>53</ele>
        <time>2014-06-21T17:27:57Z</time>
      </trkpt>
      <trkpt lat="48.52615" lon="-2.08044">
        <ele>57</ele>
        <time>2014-06-21T17:28:18Z</time>
      </trkpt>
      <trkpt lat="48.52626" lon="-2.08046">
        <ele>62</ele>
        <time>2014-06-21T17:28:30Z</time>
      </trkpt>
      <trkpt lat="48.5263" lon="-2.08046">
        <ele>64</ele>
        <time>2014-06-21T17:28:32Z</time>
      </trkpt>
      <trkpt lat="48.52656" lon="-2.08042">
        <ele>64</ele>
        <time>2014-06-21T17:28:43Z</time>
      </trkpt>
      <trkpt lat="48.52679" lon="-2.08031">
        <ele>70</ele>
        <time>2014-06-21T17:28:55Z</time>
      </trkpt>
      <trkpt lat="48.52738" lon="-2.08051">
        <ele>64</ele>
        <time>2014-06-21T17:29:25Z</time>
      </trkpt>
      <trkpt lat="48.528" lon="-2.08073">
        <ele>70</ele>
        <time>2014-06-21T17:29:53Z</time>
      </trkpt>
      <trkpt lat="48.52887" lon="-2.08075">
        <ele>65</ele>
        <time>2014-06-21T17:30:14Z</time>
      </trkpt>
      <trkpt lat="48.52993" lon="-2.08068">
        <ele>64</ele>
        <time>2014-06-21T17:30:40Z</time>
      </trkpt>
      <trkpt lat="48.53005" lon="-2.08067">
        <ele>66</ele>
        <time>2014-06-21T17:30:43Z</time>
      </trkpt>
      <trkpt lat="48.53093" lon="-2.08079">
        <ele>66</ele>
        <time>2014-06-21T17:31:10Z</time>
      </trkpt>
      <trkpt lat="48.53158" lon="-2.08089">
        <ele>68</ele>
        <time>2014-06-21T17:31:30Z</time>
      </trkpt>
      <trkpt lat="48.53214" lon="-2.08097">
        <ele>71</ele>
        <time>2014-06-21T17:31:48Z</time>
      </trkpt>
      <trkpt lat="48.53221" lon="-2.08097">
        <ele>73</ele>
        <time>2014-06-21T17:31:50Z</time>
      </trkpt>
      <trkpt lat="48.53281" lon="-2.08101">
        <ele>72</ele>
        <time>2014-06-21T17:32:10Z</time>
      </trkpt>
      <trkpt lat="48.53346" lon="-2.08071">
        <ele>70</ele>
        <time>2014-06-21T17:32:30Z</time>
      </trkpt>
      <trkpt lat="48.53412" lon="-2.08034">
        <ele>71</ele>
        <time>2014-06-21T17:32:50Z</time>
      </trkpt>
      <trkpt lat="48.53498" lon="-2.07978">
        <ele>72</ele>
        <time>2014-06-21T17:33:20Z</time>
      </trkpt>
      <trkpt lat="48.53588" lon="-2.07948">
        <ele>77</ele>
        <time>2014-06-21T17:33:47Z</time>
      </trkpt>
      <trkpt lat="48.53597" lon="-2.07945">
        <ele>81</ele>
        <time>2014-06-21T17:33:50Z</time>
      </trkpt>
      <trkpt lat="48.53691" lon="-2.0795">
        <ele>80</ele>
        <time>2014-06-21T17:34:20Z</time>
      </trkpt>
      <trkpt lat="48.53828" lon="-2.07975">
        <ele>76</ele>
        <time>2014-06-21T17:34:50Z</time>
      </trkpt>
      <trkpt lat="48.53949" lon="-2.07995">
        <ele>72</ele>
        <time>2014-06-21T17:35:20Z</time>
      </trkpt>
      <trkpt lat="48.5408" lon="-2.08015">
        <ele>69</ele>
        <time>2014-06-21T17:35:50Z</time>
      </trkpt>
      <trkpt lat="48.54226" lon="-2.07948">
        <ele>65</ele>
        <time>2014-06-21T17:36:20Z</time>
      </trkpt>
      <trkpt lat="48.54386" lon="-2.08001">
        <ele>66</ele>
        <time>2014-06-21T17:36:50Z</time>
      </trkpt>
      <trkpt lat="48.54473" lon="-2.08037">
        <ele>65</ele>
        <time>2014-06-21T17:37:20Z</time>
      </trkpt>
      <trkpt lat="48.54502" lon="-2.08032">
        <ele>62</ele>
        <time>2014-06-21T17:37:28Z</time>
      </trkpt>
      <trkpt lat="48.54638" lon="-2.07925">
        <ele>58</ele>
        <time>2014-06-21T17:37:58Z</time>
      </trkpt>
      <trkpt lat="48.54677" lon="-2.07914">
        <ele>59</ele>
        <time>2014-06-21T17:38:06Z</time>
      </trkpt>
      <trkpt lat="48.5483" lon="-2.0782">
        <ele>55</ele>
        <time>2014-06-21T17:38:36Z</time>
      </trkpt>
      <trkpt lat="48.54876" lon="-2.07781">
        <ele>52</ele>
        <time>2014-06-21T17:38:44Z</time>
      </trkpt>
      <trkpt lat="48.55033" lon="-2.07697">
        <ele>53</ele>
        <time>2014-06-21T17:39:14Z</time>
      </trkpt>
      <trkpt lat="48.55062" lon="-2.07693">
        <ele>54</ele>
        <time>2014-06-21T17:39:23Z</time>
      </trkpt>
      <trkpt lat="48.55137" lon="-2.07731">
        <ele>53</ele>
        <time>2014-06-21T17:39:43Z</time>
      </trkpt>
      <trkpt lat="48.55213" lon="-2.07815">
        <ele>58</ele>
        <time>2014-06-21T17:40:13Z</time>
      </trkpt>
      <trkpt lat="48.55257" lon="-2.07896">
        <ele>61</ele>
        <time>2014-06-21T17:40:41Z</time>
      </trkpt>
      <trkpt lat="48.55273" lon="-2.08004">
        <ele>63</ele>
        <time>2014-06-21T17:41:11Z</time>
      </trkpt>
      <trkpt lat="48.55283" lon="-2.08098">
        <ele>64</ele>
        <time>2014-06-21T17:41:32Z</time>
      </trkpt>
      <trkpt lat="48.55291" lon="-2.08131">
        <ele>66</ele>
        <time>2014-06-21T17:41:40Z</time>
      </trkpt>
      <trkpt lat="48.55386" lon="-2.08169">
        <ele>63</ele>
        <time>2014-06-21T17:42:10Z</time>
      </trkpt>
      <trkpt lat="48.55501" lon="-2.0821">
        <ele>59</ele>
        <time>2014-06-21T17:42:40Z</time>
      </trkpt>
      <trkpt lat="48.5563" lon="-2.08253">
        <ele>57</ele>
        <time>2014-06-21T17:43:10Z</time>
      </trkpt>
      <trkpt lat="48.5576" lon="-2.08328">
        <ele>53</ele>
        <time>2014-06-21T17:43:40Z</time>
      </trkpt>
      <trkpt lat="48.55934" lon="-2.08386">
        <ele>56</ele>
        <time>2014-06-21T17:44:10Z</time>
      </trkpt>
      <trkpt lat="48.56104" lon="-2.08435">
        <ele>55</ele>
        <time>2014-06-21T17:44:43Z</time>
      </trkpt>
      <trkpt lat="48.56236" lon="-2.08474">
        <ele>58</ele>
        <time>2014-06-21T17:45:21Z</time>
      </trkpt>
      <trkpt lat="48.56275" lon="-2.08484">
        <ele>60</ele>
        <time>2014-06-21T17:45:32Z</time>
      </trkpt>
      <trkpt lat="48.56331" lon="-2.0848">
        <ele>61</ele>
        <time>2014-06-21T17:45:52Z</time>
      </trkpt>
      <trkpt lat="48.5644" lon="-2.0847">
        <ele>50</ele>
        <time>2014-06-21T17:46:21Z</time>
      </trkpt>
      <trkpt lat="48.5643" lon="-2.08515">
        <ele>51</ele>
        <time>2014-06-21T17:46:32Z</time>
      </trkpt>
      <trkpt lat="48.56423" lon="-2.08631">
        <ele>51</ele>
        <time>2014-06-21T17:46:52Z</time>
      </trkpt>
      <trkpt lat="48.56371" lon="-2.0875">
        <ele>49</ele>
        <time>2014-06-21T17:47:12Z</time>
      </trkpt>
      <trkpt lat="48.5629" lon="-2.08989">
        <ele>43</ele>
        <time>2014-06-21T17:47:42Z</time>
      </trkpt>
      <trkpt lat="48.56249" lon="-2.09114">
        <ele>38</ele>
        <time>2014-06-21T17:47:55Z</time>
      </trkpt>
      <trkpt lat="48.56267" lon="-2.09156">
        <ele>38</ele>
        <time>2014-06-21T17:47:59Z</time>
      </trkpt>
      <trkpt lat="48.56327" lon="-2.09249">
        <ele>40</ele>
        <time>2014-06-21T17:48:11Z</time>
      </trkpt>
      <trkpt lat="48.56351" lon="-2.09314">
        <ele>41</ele>
        <time>2014-06-21T17:48:21Z</time>
      </trkpt>
      <trkpt lat="48.56339" lon="-2.09373">
        <ele>39</ele>
        <time>2014-06-21T17:48:30Z</time>
      </trkpt>
      <trkpt lat="48.56327" lon="-2.09417">
        <ele>46</ele>
        <time>2014-06-21T17:48:42Z</time>
      </trkpt>
      <trkpt lat="48.56323" lon="-2.09572">
        <ele>56</ele>
        <time>2014-06-21T17:49:19Z</time>
      </trkpt>
      <trkpt lat="48.56312" lon="-2.09721">
        <ele>59</ele>
        <time>2014-06-21T17:49:49Z</time>
      </trkpt>
      <trkpt lat="48.56295" lon="-2.0989">
        <ele>61</ele>
        <time>2014-06-21T17:50:21Z</time>
      </trkpt>
      <trkpt lat="48.56256" lon="-2.10055">
        <ele>60</ele>
        <time>2014-06-21T17:50:51Z</time>
      </trkpt>
      <trkpt lat="48.56227" lon="-2.10183">
        <ele>62</ele>
        <time>2014-06-21T17:51:11Z</time>
      </trkpt>
      <trkpt lat="48.5617" lon="-2.10361">
        <ele>63</ele>
        <time>2014-06-21T17:51:41Z</time>
      </trkpt>
      <trkpt lat="48.56139" lon="-2.10472">
        <ele>59</ele>
        <time>2014-06-21T17:52:01Z</time>
      </trkpt>
      <trkpt lat="48.5614" lon="-2.10473">
        <ele>61</ele>
        <time>2014-06-21T17:52:04Z</time>
      </trkpt>
      <trkpt lat="48.56142" lon="-2.10471">
        <ele>61</ele>
        <time>2014-06-21T17:52:13Z</time>
      </trkpt>
      <trkpt lat="48.56141" lon="-2.10477">
        <ele>60</ele>
        <time>2014-06-21T17:53:09Z</time>
      </trkpt>
      <trkpt lat="48.56093" lon="-2.10691">
        <ele>58</ele>
        <time>2014-06-21T17:53:39Z</time>
      </trkpt>
      <trkpt lat="48.5607" lon="-2.10776">
        <ele>58</ele>
        <time>2014-06-21T17:53:48Z</time>
      </trkpt>
      <trkpt lat="48.55983" lon="-2.11003">
        <ele>55</ele>
        <time>2014-06-21T17:54:14Z</time>
      </trkpt>
      <trkpt lat="48.55984" lon="-2.11077">
        <ele>52</ele>
        <time>2014-06-21T17:54:23Z</time>
      </trkpt>
      <trkpt lat="48.56014" lon="-2.1111">
        <ele>51</ele>
        <time>2014-06-21T17:54:29Z</time>
      </trkpt>
      <trkpt lat="48.56059" lon="-2.1112">
        <ele>53</ele>
        <time>2014-06-21T17:54:36Z</time>
      </trkpt>
      <trkpt lat="48.56193" lon="-2.11183">
        <ele>56</ele>
        <time>2014-06-21T17:55:06Z</time>
      </trkpt>
      <trkpt lat="48.56233" lon="-2.11225">
        <ele>56</ele>
        <time>2014-06-21T17:55:16Z</time>
      </trkpt>
      <trkpt lat="48.56368" lon="-2.11371">
        <ele>50</ele>
        <time>2014-06-21T17:55:46Z</time>
      </trkpt>
      <trkpt lat="48.56479" lon="-2.11476">
        <ele>50</ele>
        <time>2014-06-21T17:56:16Z</time>
      </trkpt>
      <trkpt lat="48.56488" lon="-2.1149">
        <ele>50</ele>
        <time>2014-06-21T17:56:19Z</time>
      </trkpt>
      <trkpt lat="48.56549" lon="-2.11669">
        <ele>50</ele>
        <time>2014-06-21T17:56:49Z</time>
      </trkpt>
      <trkpt lat="48.56611" lon="-2.11703">
        <ele>52</ele>
        <time>2014-06-21T17:57:03Z</time>
      </trkpt>
      <trkpt lat="48.5671" lon="-2.1172">
        <ele>53</ele>
        <time>2014-06-21T17:57:33Z</time>
      </trkpt>
      <trkpt lat="48.56732" lon="-2.11726">
        <ele>51</ele>
        <time>2014-06-21T17:57:40Z</time>
      </trkpt>
      <trkpt lat="48.56913" lon="-2.11835">
        <ele>43</ele>
        <time>2014-06-21T17:58:10Z</time>
      </trkpt>
      <trkpt lat="48.5708" lon="-2.11925">
        <ele>45</ele>
        <time>2014-06-21T17:58:41Z</time>
      </trkpt>
      <trkpt lat="48.57094" lon="-2.11937">
        <ele>44</ele>
        <time>2014-06-21T17:58:45Z</time>
      </trkpt>
      <trkpt lat="48.57097" lon="-2.11955">
        <ele>45</ele>
        <time>2014-06-21T17:58:48Z</time>
      </trkpt>
      <trkpt lat="48.57098" lon="-2.12032">
        <ele>45</ele>
        <time>2014-06-21T17:59:03Z</time>
      </trkpt>
      <trkpt lat="48.57176" lon="-2.12166">
        <ele>38</ele>
        <time>2014-06-21T17:59:33Z</time>
      </trkpt>
      <trkpt lat="48.57207" lon="-2.1219">
        <ele>38</ele>
        <time>2014-06-21T17:59:40Z</time>
      </trkpt>
      <trkpt lat="48.57299" lon="-2.12305">
        <ele>40</ele>
        <time>2014-06-21T18:00:10Z</time>
      </trkpt>
      <trkpt lat="48.57373" lon="-2.12408">
        <ele>43</ele>
        <time>2014-06-21T18:00:40Z</time>
      </trkpt>
      <trkpt lat="48.57388" lon="-2.12413">
        <ele>44</ele>
        <time>2014-06-21T18:00:45Z</time>
      </trkpt>
      <trkpt lat="48.57389" lon="-2.12417">
        <ele>44</ele>
        <time>2014-06-21T18:00:46Z</time>
      </trkpt>
      <trkpt lat="48.57388" lon="-2.12425">
        <ele>45</ele>
        <time>2014-06-21T18:00:48Z</time>
      </trkpt>
      <trkpt lat="48.57358" lon="-2.12507">
        <ele>42</ele>
        <time>2014-06-21T18:01:56Z</time>
      </trkpt>
      <trkpt lat="48.57353" lon="-2.12564">
        <ele>42</ele>
        <time>2014-06-21T18:02:09Z</time>
      </trkpt>
      <trkpt lat="48.57363" lon="-2.12577">
        <ele>42</ele>
        <time>2014-06-21T18:02:13Z</time>
      </trkpt>
      <trkpt lat="48.57451" lon="-2.12621">
        <ele>44</ele>
        <time>2014-06-21T18:02:41Z</time>
      </trkpt>
      <trkpt lat="48.57486" lon="-2.12645">
        <ele>39</ele>
        <time>2014-06-21T18:02:54Z</time>
      </trkpt>
      <trkpt lat="48.57486" lon="-2.12654">
        <ele>40</ele>
        <time>2014-06-21T18:02:56Z</time>
      </trkpt>
      <trkpt lat="48.57453" lon="-2.12761">
        <ele>35</ele>
        <time>2014-06-21T18:03:27Z</time>
      </trkpt>
      <trkpt lat="48.57476" lon="-2.1285">
        <ele>32</ele>
        <time>2014-06-21T18:03:57Z</time>
      </trkpt>
      <trkpt lat="48.57491" lon="-2.12949">
        <ele>28</ele>
        <time>2014-06-21T18:04:27Z</time>
      </trkpt>
      <trkpt lat="48.57497" lon="-2.13038">
        <ele>28</ele>
        <time>2014-06-21T18:04:55Z</time>
      </trkpt>
      <trkpt lat="48.57488" lon="-2.1307">
        <ele>27</ele>
        <time>2014-06-21T18:05:05Z</time>
      </trkpt>
      <trkpt lat="48.57483" lon="-2.13093">
        <ele>33</ele>
        <time>2014-06-21T18:05:13Z</time>
      </trkpt>
      <trkpt lat="48.57483" lon="-2.13097">
        <ele>35</ele>
        <time>2014-06-21T18:05:14Z</time>
      </trkpt>
      <trkpt lat="48.57449" lon="-2.13198">
        <ele>27</ele>
        <time>2014-06-21T18:05:44Z</time>
      </trkpt>
      <trkpt lat="48.57414" lon="-2.13333">
        <ele>25</ele>
        <time>2014-06-21T18:06:22Z</time>
      </trkpt>
      <trkpt lat="48.57371" lon="-2.13408">
        <ele>24</ele>
        <time>2014-06-21T18:06:44Z</time>
      </trkpt>
      <trkpt lat="48.57367" lon="-2.13413">
        <ele>28</ele>
        <time>2014-06-21T18:06:46Z</time>
      </trkpt>
      <trkpt lat="48.57355" lon="-2.13429">
        <ele>27</ele>
        <time>2014-06-21T18:06:52Z</time>
      </trkpt>
      <trkpt lat="48.57331" lon="-2.13472">
        <ele>26</ele>
        <time>2014-06-21T18:07:11Z</time>
      </trkpt>
      <trkpt lat="48.57331" lon="-2.13485">
        <ele>29</ele>
        <time>2014-06-21T18:08:03Z</time>
      </trkpt>
      <trkpt lat="48.57325" lon="-2.13503">
        <ele>29</ele>
        <time>2014-06-21T18:08:07Z</time>
      </trkpt>
      <trkpt lat="48.57325" lon="-2.13512">
        <ele>25</ele>
        <time>2014-06-21T18:08:09Z</time>
      </trkpt>
      <trkpt lat="48.57328" lon="-2.13518">
        <ele>26</ele>
        <time>2014-06-21T18:08:11Z</time>
      </trkpt>
      <trkpt lat="48.574" lon="-2.1356">
        <ele>26</ele>
        <time>2014-06-21T18:08:30Z</time>
      </trkpt>
      <trkpt lat="48.57551" lon="-2.13676">
        <ele>22</ele>
        <time>2014-06-21T18:09:02Z</time>
      </trkpt>
      <trkpt lat="48.57582" lon="-2.13693">
        <ele>23</ele>
        <time>2014-06-21T18:09:12Z</time>
      </trkpt>
      <trkpt lat="48.57662" lon="-2.13702">
        <ele>24</ele>
        <time>2014-06-21T18:09:37Z</time>
      </trkpt>
      <trkpt lat="48.5773" lon="-2.13712">
        <ele>26</ele>
        <time>2014-06-21T18:09:57Z</time>
      </trkpt>
      <trkpt lat="48.57767" lon="-2.13714">
        <ele>28</ele>
        <time>2014-06-21T18:10:09Z</time>
      </trkpt>
      <trkpt lat="48.57792" lon="-2.13719">
        <ele>29</ele>
        <time>2014-06-21T18:10:17Z</time>
      </trkpt>
      <trkpt lat="48.57825" lon="-2.13728">
        <ele>30</ele>
        <time>2014-06-21T18:10:27Z</time>
      </trkpt>
      <trkpt lat="48.57848" lon="-2.13735">
        <ele>31</ele>
        <time>2014-06-21T18:10:33Z</time>
      </trkpt>
      <trkpt lat="48.57954" lon="-2.13823">
        <ele>33</ele>
        <time>2014-06-21T18:11:05Z</time>
      </trkpt>
      <trkpt lat="48.57985" lon="-2.13856">
        <ele>34</ele>
        <time>2014-06-21T18:11:17Z</time>
      </trkpt>
      <trkpt lat="48.58023" lon="-2.13881">
        <ele>36</ele>
        <time>2014-06-21T18:11:31Z</time>
      </trkpt>
      <trkpt lat="48.58038" lon="-2.13875">
        <ele>37</ele>
        <time>2014-06-21T18:11:35Z</time>
      </trkpt>
      <trkpt lat="48.58042" lon="-2.13878">
        <ele>37</ele>
        <time>2014-06-21T18:11:36Z</time>
      </trkpt>
      <trkpt lat="48.5805" lon="-2.13915">
        <ele>33</ele>
        <time>2014-06-21T18:11:42Z</time>
      </trkpt>
      <trkpt lat="48.58059" lon="-2.13951">
        <ele>35</ele>
        <time>2014-06-21T18:11:49Z</time>
      </trkpt>
      <trkpt lat="48.58068" lon="-2.13959">
        <ele>35</ele>
        <time>2014-06-21T18:11:52Z</time>
      </trkpt>
      <trkpt lat="48.58079" lon="-2.13963">
        <ele>35</ele>
        <time>2014-06-21T18:11:56Z</time>
      </trkpt>
      <trkpt lat="48.58108" lon="-2.1398">
        <ele>38</ele>
        <time>2014-06-21T18:12:07Z</time>
      </trkpt>
      <trkpt lat="48.58115" lon="-2.13987">
        <ele>42</ele>
        <time>2014-06-21T18:12:10Z</time>
      </trkpt>
      <trkpt lat="48.58116" lon="-2.13991">
        <ele>42</ele>
        <time>2014-06-21T18:12:11Z</time>
      </trkpt>
      <trkpt lat="48.58115" lon="-2.14">
        <ele>40</ele>
        <time>2014-06-21T18:12:13Z</time>
      </trkpt>
      <trkpt lat="48.58112" lon="-2.14004">
        <ele>39</ele>
        <time>2014-06-21T18:12:16Z</time>
      </trkpt>
      <trkpt lat="48.58152" lon="-2.13996">
        <ele>36</ele>
        <time>2014-06-21T18:12:30Z</time>
      </trkpt>
      <trkpt lat="48.58156" lon="-2.13997">
        <ele>35</ele>
        <time>2014-06-21T18:12:31Z</time>
      </trkpt>
      <trkpt lat="48.58159" lon="-2.14001">
        <ele>35</ele>
        <time>2014-06-21T18:12:32Z</time>
      </trkpt>
      <trkpt lat="48.5816" lon="-2.14006">
        <ele>35</ele>
        <time>2014-06-21T18:12:33Z</time>
      </trkpt>
      <trkpt lat="48.58159" lon="-2.14024">
        <ele>35</ele>
        <time>2014-06-21T18:12:36Z</time>
      </trkpt>
      <trkpt lat="48.58139" lon="-2.14112">
        <ele>33</ele>
        <time>2014-06-21T18:12:52Z</time>
      </trkpt>
      <trkpt lat="48.58141" lon="-2.14116">
        <ele>33</ele>
        <time>2014-06-21T18:12:54Z</time>
      </trkpt>
      <trkpt lat="48.58222" lon="-2.14138">
        <ele>26</ele>
        <time>2014-06-21T18:13:13Z</time>
      </trkpt>
      <trkpt lat="48.58279" lon="-2.14146">
        <ele>27</ele>
        <time>2014-06-21T18:13:25Z</time>
      </trkpt>
      <trkpt lat="48.58315" lon="-2.14163">
        <ele>29</ele>
        <time>2014-06-21T18:13:33Z</time>
      </trkpt>
      <trkpt lat="48.58428" lon="-2.14264">
        <ele>29</ele>
        <time>2014-06-21T18:14:03Z</time>
      </trkpt>
      <trkpt lat="48.58462" lon="-2.14286">
        <ele>27</ele>
        <time>2014-06-21T18:14:13Z</time>
      </trkpt>
      <trkpt lat="48.58517" lon="-2.14272">
        <ele>27</ele>
        <time>2014-06-21T18:14:33Z</time>
      </trkpt>
      <trkpt lat="48.58544" lon="-2.14246">
        <ele>25</ele>
        <time>2014-06-21T18:14:41Z</time>
      </trkpt>
      <trkpt lat="48.58548" lon="-2.14249">
        <ele>25</ele>
        <time>2014-06-21T18:14:43Z</time>
      </trkpt>
      <trkpt lat="48.58548" lon="-2.14252">
        <ele>26</ele>
        <time>2014-06-21T18:14:44Z</time>
      </trkpt>
      <trkpt lat="48.58548" lon="-2.1426">
        <ele>28</ele>
        <time>2014-06-21T18:14:47Z</time>
      </trkpt>
    </trkseg>
  </trk>
  <trk>
    <name><![CDATA[21 juin 2014]]></name>
    <cmt><![CDATA[19:14:21]]></cmt>
    <desc><![CDATA[comment ...]]></desc>
    <trkseg>
      <trkpt lat="48.59628" lon="-2.16631">
        <ele>11</ele>
        <time>2014-06-21T19:14:24Z</time>
      </trkpt>
      <trkpt lat="48.59628" lon="-2.16632">
        <ele>11</ele>
        <time>2014-06-21T19:14:25Z</time>
      </trkpt>
      <trkpt lat="48.59626" lon="-2.16633">
        <ele>12</ele>
        <time>2014-06-21T19:14:41Z</time>
      </trkpt>
      <trkpt lat="48.59626" lon="-2.16628">
        <ele>10</ele>
        <time>2014-06-21T19:14:47Z</time>
      </trkpt>
      <trkpt lat="48.59663" lon="-2.1653">
        <ele>11</ele>
        <time>2014-06-21T19:15:17Z</time>
      </trkpt>
      <trkpt lat="48.59712" lon="-2.16391">
        <ele>8</ele>
        <time>2014-06-21T19:15:47Z</time>
      </trkpt>
      <trkpt lat="48.59768" lon="-2.16236">
        <ele>6</ele>
        <time>2014-06-21T19:16:17Z</time>
      </trkpt>
      <trkpt lat="48.59825" lon="-2.16092">
        <ele>6</ele>
        <time>2014-06-21T19:16:47Z</time>
      </trkpt>
      <trkpt lat="48.5986" lon="-2.15983">
        <ele>5</ele>
        <time>2014-06-21T19:17:05Z</time>
      </trkpt>
      <trkpt lat="48.59837" lon="-2.15783">
        <ele>-1</ele>
        <time>2014-06-21T19:17:36Z</time>
      </trkpt>
      <trkpt lat="48.59876" lon="-2.15662">
        <ele>6</ele>
        <time>2014-06-21T19:18:05Z</time>
      </trkpt>
      <trkpt lat="48.59894" lon="-2.15578">
        <ele>2</ele>
        <time>2014-06-21T19:18:25Z</time>
      </trkpt>
      <trkpt lat="48.59909" lon="-2.155">
        <ele>8</ele>
        <time>2014-06-21T19:18:45Z</time>
      </trkpt>
      <trkpt lat="48.59914" lon="-2.15404">
        <ele>14</ele>
        <time>2014-06-21T19:19:15Z</time>
      </trkpt>
      <trkpt lat="48.59913" lon="-2.1537">
        <ele>13</ele>
        <time>2014-06-21T19:19:25Z</time>
      </trkpt>
      <trkpt lat="48.599" lon="-2.15347">
        <ele>14</ele>
        <time>2014-06-21T19:19:35Z</time>
      </trkpt>
      <trkpt lat="48.59886" lon="-2.15322">
        <ele>14</ele>
        <time>2014-06-21T19:19:45Z</time>
      </trkpt>
      <trkpt lat="48.59856" lon="-2.1528">
        <ele>13</ele>
        <time>2014-06-21T19:20:05Z</time>
      </trkpt>
      <trkpt lat="48.5979" lon="-2.15234">
        <ele>10</ele>
        <time>2014-06-21T19:20:35Z</time>
      </trkpt>
      <trkpt lat="48.59777" lon="-2.15225">
        <ele>13</ele>
        <time>2014-06-21T19:20:40Z</time>
      </trkpt>
      <trkpt lat="48.59766" lon="-2.15213">
        <ele>15</ele>
        <time>2014-06-21T19:20:45Z</time>
      </trkpt>
      <trkpt lat="48.59726" lon="-2.15153">
        <ele>17</ele>
        <time>2014-06-21T19:21:04Z</time>
      </trkpt>
      <trkpt lat="48.59721" lon="-2.15127">
        <ele>22</ele>
        <time>2014-06-21T19:21:11Z</time>
      </trkpt>
      <trkpt lat="48.59675" lon="-2.15069">
        <ele>24</ele>
        <time>2014-06-21T19:21:29Z</time>
      </trkpt>
      <trkpt lat="48.59634" lon="-2.15005">
        <ele>27</ele>
        <time>2014-06-21T19:21:49Z</time>
      </trkpt>
      <trkpt lat="48.59594" lon="-2.14965">
        <ele>29</ele>
        <time>2014-06-21T19:22:09Z</time>
      </trkpt>
      <trkpt lat="48.59532" lon="-2.14954">
        <ele>31</ele>
        <time>2014-06-21T19:22:39Z</time>
      </trkpt>
      <trkpt lat="48.59454" lon="-2.14923">
        <ele>31</ele>
        <time>2014-06-21T19:23:09Z</time>
      </trkpt>
      <trkpt lat="48.59417" lon="-2.14898">
        <ele>31</ele>
        <time>2014-06-21T19:23:24Z</time>
      </trkpt>
      <trkpt lat="48.59327" lon="-2.14853">
        <ele>31</ele>
        <time>2014-06-21T19:23:54Z</time>
      </trkpt>
      <trkpt lat="48.59247" lon="-2.14819">
        <ele>30</ele>
        <time>2014-06-21T19:24:21Z</time>
      </trkpt>
      <trkpt lat="48.591" lon="-2.14707">
        <ele>26</ele>
        <time>2014-06-21T19:24:51Z</time>
      </trkpt>
      <trkpt lat="48.58887" lon="-2.14573">
        <ele>17</ele>
        <time>2014-06-21T19:25:30Z</time>
      </trkpt>
      <trkpt lat="48.58862" lon="-2.14552">
        <ele>16</ele>
        <time>2014-06-21T19:25:40Z</time>
      </trkpt>
      <trkpt lat="48.58849" lon="-2.14531">
        <ele>16</ele>
        <time>2014-06-21T19:25:50Z</time>
      </trkpt>
      <trkpt lat="48.58848" lon="-2.14527">
        <ele>16</ele>
        <time>2014-06-21T19:25:51Z</time>
      </trkpt>
      <trkpt lat="48.58846" lon="-2.14524">
        <ele>16</ele>
        <time>2014-06-21T19:25:52Z</time>
      </trkpt>
      <trkpt lat="48.58814" lon="-2.145">
        <ele>12</ele>
        <time>2014-06-21T19:25:59Z</time>
      </trkpt>
      <trkpt lat="48.58714" lon="-2.14411">
        <ele>10</ele>
        <time>2014-06-21T19:26:20Z</time>
      </trkpt>
      <trkpt lat="48.58689" lon="-2.14394">
        <ele>16</ele>
        <time>2014-06-21T19:26:30Z</time>
      </trkpt>
      <trkpt lat="48.58662" lon="-2.14362">
        <ele>20</ele>
        <time>2014-06-21T19:26:40Z</time>
      </trkpt>
      <trkpt lat="48.58612" lon="-2.14323">
        <ele>23</ele>
        <time>2014-06-21T19:26:59Z</time>
      </trkpt>
      <trkpt lat="48.58554" lon="-2.14299">
        <ele>25</ele>
        <time>2014-06-21T19:27:19Z</time>
      </trkpt>
      <trkpt lat="48.5852" lon="-2.14293">
        <ele>30</ele>
        <time>2014-06-21T19:27:31Z</time>
      </trkpt>
      <trkpt lat="48.58476" lon="-2.143">
        <ele>29</ele>
        <time>2014-06-21T19:27:48Z</time>
      </trkpt>
      <trkpt lat="48.58475" lon="-2.143">
        <ele>28</ele>
        <time>2014-06-21T19:28:03Z</time>
      </trkpt>
      <trkpt lat="48.58468" lon="-2.14302">
        <ele>28</ele>
        <time>2014-06-21T19:28:24Z</time>
      </trkpt>
      <trkpt lat="48.58466" lon="-2.14302">
        <ele>27</ele>
        <time>2014-06-21T19:28:25Z</time>
      </trkpt>
      <trkpt lat="48.5837" lon="-2.1422">
        <ele>22</ele>
        <time>2014-06-21T19:28:55Z</time>
      </trkpt>
      <trkpt lat="48.58327" lon="-2.14181">
        <ele>23</ele>
        <time>2014-06-21T19:29:07Z</time>
      </trkpt>
      <trkpt lat="48.58195" lon="-2.14134">
        <ele>30</ele>
        <time>2014-06-21T19:29:37Z</time>
      </trkpt>
      <trkpt lat="48.58138" lon="-2.14113">
        <ele>32</ele>
        <time>2014-06-21T19:29:52Z</time>
      </trkpt>
      <trkpt lat="48.58137" lon="-2.14102">
        <ele>32</ele>
        <time>2014-06-21T19:29:54Z</time>
      </trkpt>
      <trkpt lat="48.58153" lon="-2.1402">
        <ele>25</ele>
        <time>2014-06-21T19:30:14Z</time>
      </trkpt>
      <trkpt lat="48.5815" lon="-2.14">
        <ele>22</ele>
        <time>2014-06-21T19:30:22Z</time>
      </trkpt>
      <trkpt lat="48.58145" lon="-2.14">
        <ele>23</ele>
        <time>2014-06-21T19:30:24Z</time>
      </trkpt>
      <trkpt lat="48.58121" lon="-2.14012">
        <ele>25</ele>
        <time>2014-06-21T19:30:34Z</time>
      </trkpt>
      <trkpt lat="48.58106" lon="-2.14003">
        <ele>23</ele>
        <time>2014-06-21T19:30:39Z</time>
      </trkpt>
      <trkpt lat="48.58044" lon="-2.13954">
        <ele>28</ele>
        <time>2014-06-21T19:31:10Z</time>
      </trkpt>
      <trkpt lat="48.58045" lon="-2.13933">
        <ele>29</ele>
        <time>2014-06-21T19:31:14Z</time>
      </trkpt>
      <trkpt lat="48.58023" lon="-2.13895">
        <ele>29</ele>
        <time>2014-06-21T19:31:24Z</time>
      </trkpt>
      <trkpt lat="48.57985" lon="-2.13868">
        <ele>28</ele>
        <time>2014-06-21T19:31:34Z</time>
      </trkpt>
      <trkpt lat="48.57826" lon="-2.13736">
        <ele>30</ele>
        <time>2014-06-21T19:32:04Z</time>
      </trkpt>
      <trkpt lat="48.57767" lon="-2.13718">
        <ele>30</ele>
        <time>2014-06-21T19:32:14Z</time>
      </trkpt>
      <trkpt lat="48.57556" lon="-2.13697">
        <ele>28</ele>
        <time>2014-06-21T19:32:44Z</time>
      </trkpt>
      <trkpt lat="48.5738" lon="-2.13628">
        <ele>26</ele>
        <time>2014-06-21T19:33:13Z</time>
      </trkpt>
      <trkpt lat="48.57275" lon="-2.1355">
        <ele>28</ele>
        <time>2014-06-21T19:33:33Z</time>
      </trkpt>
      <trkpt lat="48.57165" lon="-2.13421">
        <ele>28</ele>
        <time>2014-06-21T19:34:03Z</time>
      </trkpt>
      <trkpt lat="48.57155" lon="-2.13405">
        <ele>29</ele>
        <time>2014-06-21T19:34:06Z</time>
      </trkpt>
      <trkpt lat="48.57145" lon="-2.13389">
        <ele>31</ele>
        <time>2014-06-21T19:34:09Z</time>
      </trkpt>
      <trkpt lat="48.57038" lon="-2.13266">
        <ele>29</ele>
        <time>2014-06-21T19:34:39Z</time>
      </trkpt>
      <trkpt lat="48.57031" lon="-2.13256">
        <ele>28</ele>
        <time>2014-06-21T19:34:41Z</time>
      </trkpt>
      <trkpt lat="48.56992" lon="-2.13211">
        <ele>29</ele>
        <time>2014-06-21T19:34:51Z</time>
      </trkpt>
      <trkpt lat="48.56943" lon="-2.13157">
        <ele>32</ele>
        <time>2014-06-21T19:35:04Z</time>
      </trkpt>
      <trkpt lat="48.56925" lon="-2.13133">
        <ele>33</ele>
        <time>2014-06-21T19:35:11Z</time>
      </trkpt>
      <trkpt lat="48.5693" lon="-2.13086">
        <ele>30</ele>
        <time>2014-06-21T19:35:21Z</time>
      </trkpt>
      <trkpt lat="48.56935" lon="-2.13086">
        <ele>27</ele>
        <time>2014-06-21T19:35:26Z</time>
      </trkpt>
      <trkpt lat="48.56936" lon="-2.13079">
        <ele>26</ele>
        <time>2014-06-21T19:36:45Z</time>
      </trkpt>
      <trkpt lat="48.56958" lon="-2.13016">
        <ele>31</ele>
        <time>2014-06-21T19:37:04Z</time>
      </trkpt>
      <trkpt lat="48.56978" lon="-2.12912">
        <ele>36</ele>
        <time>2014-06-21T19:37:34Z</time>
      </trkpt>
      <trkpt lat="48.5701" lon="-2.12793">
        <ele>34</ele>
        <time>2014-06-21T19:38:04Z</time>
      </trkpt>
      <trkpt lat="48.57065" lon="-2.12594">
        <ele>29</ele>
        <time>2014-06-21T19:38:34Z</time>
      </trkpt>
      <trkpt lat="48.57066" lon="-2.12589">
        <ele>30</ele>
        <time>2014-06-21T19:38:35Z</time>
      </trkpt>
      <trkpt lat="48.57074" lon="-2.1257">
        <ele>31</ele>
        <time>2014-06-21T19:38:42Z</time>
      </trkpt>
      <trkpt lat="48.57077" lon="-2.12573">
        <ele>33</ele>
        <time>2014-06-21T19:39:24Z</time>
      </trkpt>
      <trkpt lat="48.57157" lon="-2.12647">
        <ele>27</ele>
        <time>2014-06-21T19:39:54Z</time>
      </trkpt>
      <trkpt lat="48.57172" lon="-2.1265">
        <ele>28</ele>
        <time>2014-06-21T19:39:58Z</time>
      </trkpt>
      <trkpt lat="48.57205" lon="-2.12603">
        <ele>25</ele>
        <time>2014-06-21T19:40:17Z</time>
      </trkpt>
      <trkpt lat="48.57249" lon="-2.12539">
        <ele>27</ele>
        <time>2014-06-21T19:40:38Z</time>
      </trkpt>
      <trkpt lat="48.57264" lon="-2.12502">
        <ele>31</ele>
        <time>2014-06-21T19:40:50Z</time>
      </trkpt>
      <trkpt lat="48.57269" lon="-2.12495">
        <ele>33</ele>
        <time>2014-06-21T19:40:53Z</time>
      </trkpt>
      <trkpt lat="48.57294" lon="-2.12457">
        <ele>35</ele>
        <time>2014-06-21T19:41:07Z</time>
      </trkpt>
      <trkpt lat="48.57298" lon="-2.12451">
        <ele>37</ele>
        <time>2014-06-21T19:41:09Z</time>
      </trkpt>
      <trkpt lat="48.57316" lon="-2.12428">
        <ele>38</ele>
        <time>2014-06-21T19:41:17Z</time>
      </trkpt>
      <trkpt lat="48.57324" lon="-2.12416">
        <ele>41</ele>
        <time>2014-06-21T19:41:21Z</time>
      </trkpt>
      <trkpt lat="48.57345" lon="-2.12379">
        <ele>44</ele>
        <time>2014-06-21T19:41:33Z</time>
      </trkpt>
      <trkpt lat="48.5734" lon="-2.12366">
        <ele>44</ele>
        <time>2014-06-21T19:41:36Z</time>
      </trkpt>
      <trkpt lat="48.5725" lon="-2.12234">
        <ele>41</ele>
        <time>2014-06-21T19:42:06Z</time>
      </trkpt>
      <trkpt lat="48.57155" lon="-2.1215">
        <ele>41</ele>
        <time>2014-06-21T19:42:36Z</time>
      </trkpt>
      <trkpt lat="48.57099" lon="-2.12026">
        <ele>40</ele>
        <time>2014-06-21T19:43:06Z</time>
      </trkpt>
      <trkpt lat="48.57092" lon="-2.11942">
        <ele>45</ele>
        <time>2014-06-21T19:43:22Z</time>
      </trkpt>
      <trkpt lat="48.56963" lon="-2.11859">
        <ele>42</ele>
        <time>2014-06-21T19:43:50Z</time>
      </trkpt>
      <trkpt lat="48.5683" lon="-2.11775">
        <ele>44</ele>
        <time>2014-06-21T19:44:20Z</time>
      </trkpt>
      <trkpt lat="48.56748" lon="-2.11739">
        <ele>49</ele>
        <time>2014-06-21T19:44:50Z</time>
      </trkpt>
      <trkpt lat="48.56711" lon="-2.11724">
        <ele>52</ele>
        <time>2014-06-21T19:45:08Z</time>
      </trkpt>
      <trkpt lat="48.56635" lon="-2.11719">
        <ele>47</ele>
        <time>2014-06-21T19:45:38Z</time>
      </trkpt>
      <trkpt lat="48.56523" lon="-2.11633">
        <ele>44</ele>
        <time>2014-06-21T19:46:05Z</time>
      </trkpt>
      <trkpt lat="48.56496" lon="-2.11535">
        <ele>44</ele>
        <time>2014-06-21T19:46:18Z</time>
      </trkpt>
      <trkpt lat="48.56496" lon="-2.1153">
        <ele>46</ele>
        <time>2014-06-21T19:46:19Z</time>
      </trkpt>
      <trkpt lat="48.56486" lon="-2.11494">
        <ele>49</ele>
        <time>2014-06-21T19:46:24Z</time>
      </trkpt>
      <trkpt lat="48.56467" lon="-2.11472">
        <ele>49</ele>
        <time>2014-06-21T19:46:29Z</time>
      </trkpt>
      <trkpt lat="48.56331" lon="-2.11334">
        <ele>51</ele>
        <time>2014-06-21T19:46:59Z</time>
      </trkpt>
      <trkpt lat="48.56233" lon="-2.11233">
        <ele>53</ele>
        <time>2014-06-21T19:47:20Z</time>
      </trkpt>
      <trkpt lat="48.56202" lon="-2.11194">
        <ele>53</ele>
        <time>2014-06-21T19:47:31Z</time>
      </trkpt>
      <trkpt lat="48.56111" lon="-2.11132">
        <ele>52</ele>
        <time>2014-06-21T19:48:01Z</time>
      </trkpt>
      <trkpt lat="48.55992" lon="-2.11087">
        <ele>50</ele>
        <time>2014-06-21T19:48:31Z</time>
      </trkpt>
      <trkpt lat="48.5598" lon="-2.11042">
        <ele>52</ele>
        <time>2014-06-21T19:48:41Z</time>
      </trkpt>
      <trkpt lat="48.55993" lon="-2.10984">
        <ele>54</ele>
        <time>2014-06-21T19:48:52Z</time>
      </trkpt>
      <trkpt lat="48.56006" lon="-2.10952">
        <ele>55</ele>
        <time>2014-06-21T19:48:58Z</time>
      </trkpt>
      <trkpt lat="48.56015" lon="-2.10932">
        <ele>57</ele>
        <time>2014-06-21T19:49:02Z</time>
      </trkpt>
      <trkpt lat="48.56053" lon="-2.10834">
        <ele>53</ele>
        <time>2014-06-21T19:49:23Z</time>
      </trkpt>
      <trkpt lat="48.56049" lon="-2.10825">
        <ele>54</ele>
        <time>2014-06-21T19:49:25Z</time>
      </trkpt>
      <trkpt lat="48.55947" lon="-2.10717">
        <ele>56</ele>
        <time>2014-06-21T19:49:55Z</time>
      </trkpt>
      <trkpt lat="48.55943" lon="-2.10711">
        <ele>56</ele>
        <time>2014-06-21T19:49:56Z</time>
      </trkpt>
      <trkpt lat="48.55841" lon="-2.10618">
        <ele>58</ele>
        <time>2014-06-21T19:50:24Z</time>
      </trkpt>
      <trkpt lat="48.55832" lon="-2.10608">
        <ele>61</ele>
        <time>2014-06-21T19:50:28Z</time>
      </trkpt>
      <trkpt lat="48.55826" lon="-2.10602">
        <ele>63</ele>
        <time>2014-06-21T19:50:30Z</time>
      </trkpt>
      <trkpt lat="48.55792" lon="-2.10559">
        <ele>62</ele>
        <time>2014-06-21T19:50:39Z</time>
      </trkpt>
      <trkpt lat="48.55776" lon="-2.10562">
        <ele>62</ele>
        <time>2014-06-21T19:50:41Z</time>
      </trkpt>
      <trkpt lat="48.55777" lon="-2.10552">
        <ele>60</ele>
        <time>2014-06-21T19:50:42Z</time>
      </trkpt>
      <trkpt lat="48.55773" lon="-2.10543">
        <ele>60</ele>
        <time>2014-06-21T19:50:43Z</time>
      </trkpt>
      <trkpt lat="48.55764" lon="-2.10535">
        <ele>56</ele>
        <time>2014-06-21T19:50:44Z</time>
      </trkpt>
      <trkpt lat="48.55753" lon="-2.10536">
        <ele>56</ele>
        <time>2014-06-21T19:50:45Z</time>
      </trkpt>
      <trkpt lat="48.55753" lon="-2.10528">
        <ele>56</ele>
        <time>2014-06-21T19:50:48Z</time>
      </trkpt>
      <trkpt lat="48.55743" lon="-2.10509">
        <ele>54</ele>
        <time>2014-06-21T19:50:51Z</time>
      </trkpt>
      <trkpt lat="48.5572" lon="-2.10498">
        <ele>54</ele>
        <time>2014-06-21T19:50:56Z</time>
      </trkpt>
      <trkpt lat="48.55546" lon="-2.10404">
        <ele>57</ele>
        <time>2014-06-21T19:51:26Z</time>
      </trkpt>
      <trkpt lat="48.55507" lon="-2.10375">
        <ele>58</ele>
        <time>2014-06-21T19:51:37Z</time>
      </trkpt>
      <trkpt lat="48.55468" lon="-2.1033">
        <ele>59</ele>
        <time>2014-06-21T19:54:09Z</time>
      </trkpt>
      <trkpt lat="48.55467" lon="-2.10329">
        <ele>58</ele>
        <time>2014-06-21T19:54:10Z</time>
      </trkpt>
      <trkpt lat="48.55466" lon="-2.10327">
        <ele>58</ele>
        <time>2014-06-21T19:54:11Z</time>
      </trkpt>
      <trkpt lat="48.55422" lon="-2.10281">
        <ele>58</ele>
        <time>2014-06-21T19:54:29Z</time>
      </trkpt>
      <trkpt lat="48.55268" lon="-2.10155">
        <ele>59</ele>
        <time>2014-06-21T19:55:08Z</time>
      </trkpt>
      <trkpt lat="48.55247" lon="-2.10143">
        <ele>60</ele>
        <time>2014-06-21T19:55:12Z</time>
      </trkpt>
      <trkpt lat="48.55245" lon="-2.10139">
        <ele>59</ele>
        <time>2014-06-21T19:55:13Z</time>
      </trkpt>
      <trkpt lat="48.55234" lon="-2.10132">
        <ele>59</ele>
        <time>2014-06-21T19:55:15Z</time>
      </trkpt>
      <trkpt lat="48.55218" lon="-2.10122">
        <ele>62</ele>
        <time>2014-06-21T19:55:18Z</time>
      </trkpt>
      <trkpt lat="48.5521" lon="-2.10058">
        <ele>60</ele>
        <time>2014-06-21T19:55:28Z</time>
      </trkpt>
      <trkpt lat="48.55237" lon="-2.09893">
        <ele>60</ele>
        <time>2014-06-21T19:55:53Z</time>
      </trkpt>
      <trkpt lat="48.5524" lon="-2.09692">
        <ele>64</ele>
        <time>2014-06-21T19:56:24Z</time>
      </trkpt>
      <trkpt lat="48.55262" lon="-2.09613">
        <ele>66</ele>
        <time>2014-06-21T19:56:39Z</time>
      </trkpt>
      <trkpt lat="48.55261" lon="-2.09564">
        <ele>62</ele>
        <time>2014-06-21T19:56:49Z</time>
      </trkpt>
      <trkpt lat="48.55245" lon="-2.09524">
        <ele>62</ele>
        <time>2014-06-21T19:56:56Z</time>
      </trkpt>
      <trkpt lat="48.55189" lon="-2.09366">
        <ele>62</ele>
        <time>2014-06-21T19:57:26Z</time>
      </trkpt>
      <trkpt lat="48.55111" lon="-2.09249">
        <ele>69</ele>
        <time>2014-06-21T19:57:56Z</time>
      </trkpt>
      <trkpt lat="48.54997" lon="-2.09173">
        <ele>67</ele>
        <time>2014-06-21T19:58:26Z</time>
      </trkpt>
      <trkpt lat="48.54876" lon="-2.09107">
        <ele>68</ele>
        <time>2014-06-21T19:58:56Z</time>
      </trkpt>
      <trkpt lat="48.5481" lon="-2.09049">
        <ele>66</ele>
        <time>2014-06-21T19:59:11Z</time>
      </trkpt>
      <trkpt lat="48.54835" lon="-2.08804">
        <ele>62</ele>
        <time>2014-06-21T19:59:41Z</time>
      </trkpt>
      <trkpt lat="48.54829" lon="-2.08644">
        <ele>63</ele>
        <time>2014-06-21T20:00:00Z</time>
      </trkpt>
      <trkpt lat="48.54823" lon="-2.08426">
        <ele>68</ele>
        <time>2014-06-21T20:00:30Z</time>
      </trkpt>
      <trkpt lat="48.54771" lon="-2.08308">
        <ele>67</ele>
        <time>2014-06-21T20:00:53Z</time>
      </trkpt>
      <trkpt lat="48.54637" lon="-2.08285">
        <ele>63</ele>
        <time>2014-06-21T20:01:23Z</time>
      </trkpt>
      <trkpt lat="48.54605" lon="-2.08271">
        <ele>65</ele>
        <time>2014-06-21T20:01:31Z</time>
      </trkpt>
      <trkpt lat="48.5456" lon="-2.08257">
        <ele>66</ele>
        <time>2014-06-21T20:01:41Z</time>
      </trkpt>
      <trkpt lat="48.54487" lon="-2.08201">
        <ele>67</ele>
        <time>2014-06-21T20:01:59Z</time>
      </trkpt>
      <trkpt lat="48.54486" lon="-2.08191">
        <ele>66</ele>
        <time>2014-06-21T20:02:00Z</time>
      </trkpt>
      <trkpt lat="48.54487" lon="-2.08185">
        <ele>66</ele>
        <time>2014-06-21T20:02:01Z</time>
      </trkpt>
      <trkpt lat="48.54497" lon="-2.0805">
        <ele>68</ele>
        <time>2014-06-21T20:02:21Z</time>
      </trkpt>
      <trkpt lat="48.54473" lon="-2.08043">
        <ele>65</ele>
        <time>2014-06-21T20:02:27Z</time>
      </trkpt>
      <trkpt lat="48.54424" lon="-2.08031">
        <ele>66</ele>
        <time>2014-06-21T20:02:37Z</time>
      </trkpt>
      <trkpt lat="48.54271" lon="-2.07965">
        <ele>71</ele>
        <time>2014-06-21T20:03:09Z</time>
      </trkpt>
      <trkpt lat="48.54225" lon="-2.07961">
        <ele>67</ele>
        <time>2014-06-21T20:03:19Z</time>
      </trkpt>
      <trkpt lat="48.54076" lon="-2.08018">
        <ele>68</ele>
        <time>2014-06-21T20:03:52Z</time>
      </trkpt>
      <trkpt lat="48.54068" lon="-2.08017">
        <ele>67</ele>
        <time>2014-06-21T20:03:54Z</time>
      </trkpt>
      <trkpt lat="48.54065" lon="-2.08018">
        <ele>66</ele>
        <time>2014-06-21T20:03:55Z</time>
      </trkpt>
      <trkpt lat="48.54" lon="-2.08013">
        <ele>67</ele>
        <time>2014-06-21T20:04:12Z</time>
      </trkpt>
      <trkpt lat="48.53951" lon="-2.08003">
        <ele>70</ele>
        <time>2014-06-21T20:04:22Z</time>
      </trkpt>
      <trkpt lat="48.53949" lon="-2.07999">
        <ele>72</ele>
        <time>2014-06-21T20:04:23Z</time>
      </trkpt>
      <trkpt lat="48.53815" lon="-2.07974">
        <ele>71</ele>
        <time>2014-06-21T20:04:47Z</time>
      </trkpt>
      <trkpt lat="48.53748" lon="-2.0797">
        <ele>76</ele>
        <time>2014-06-21T20:04:59Z</time>
      </trkpt>
      <trkpt lat="48.53743" lon="-2.0797">
        <ele>78</ele>
        <time>2014-06-21T20:05:00Z</time>
      </trkpt>
      <trkpt lat="48.53739" lon="-2.07966">
        <ele>79</ele>
        <time>2014-06-21T20:05:01Z</time>
      </trkpt>
      <trkpt lat="48.53631" lon="-2.07945">
        <ele>78</ele>
        <time>2014-06-21T20:05:31Z</time>
      </trkpt>
      <trkpt lat="48.53482" lon="-2.07995">
        <ele>76</ele>
        <time>2014-06-21T20:06:01Z</time>
      </trkpt>
      <trkpt lat="48.53348" lon="-2.08073">
        <ele>72</ele>
        <time>2014-06-21T20:06:31Z</time>
      </trkpt>
      <trkpt lat="48.53329" lon="-2.08084">
        <ele>72</ele>
        <time>2014-06-21T20:06:35Z</time>
      </trkpt>
      <trkpt lat="48.5318" lon="-2.08094">
        <ele>68</ele>
        <time>2014-06-21T20:07:05Z</time>
      </trkpt>
      <trkpt lat="48.5303" lon="-2.08072">
        <ele>66</ele>
        <time>2014-06-21T20:07:35Z</time>
      </trkpt>
      <trkpt lat="48.52894" lon="-2.08074">
        <ele>67</ele>
        <time>2014-06-21T20:08:05Z</time>
      </trkpt>
      <trkpt lat="48.52799" lon="-2.08079">
        <ele>73</ele>
        <time>2014-06-21T20:08:35Z</time>
      </trkpt>
      <trkpt lat="48.52696" lon="-2.08042">
        <ele>67</ele>
        <time>2014-06-21T20:09:07Z</time>
      </trkpt>
      <trkpt lat="48.52669" lon="-2.08035">
        <ele>68</ele>
        <time>2014-06-21T20:09:27Z</time>
      </trkpt>
      <trkpt lat="48.52666" lon="-2.08038">
        <ele>71</ele>
        <time>2014-06-21T20:09:29Z</time>
      </trkpt>
      <trkpt lat="48.52664" lon="-2.08041">
        <ele>74</ele>
        <time>2014-06-21T20:09:31Z</time>
      </trkpt>
      <trkpt lat="48.52666" lon="-2.08041">
        <ele>75</ele>
        <time>2014-06-21T20:11:04Z</time>
      </trkpt>
    </trkseg>
  </trk>
</gpx>